| time (UTC) | temp F | wind direction | speed MPH | gust MPH | rain 1hr in | rain 24hr in | rain mn in | humidity % | barometer mb |
| 20260506184535 | 60 | 138 | 0.0 | 3.0 | 0.00 | 0.01 | 0.00 | 68 | 1014.1 |
| 20260506183035 | 61 | 150 | 0.0 | 7.0 | 0.00 | 0.01 | 0.00 | 65 | 1014.0 |
| 20260506181534 | 61 | 142 | 0.0 | 9.0 | 0.00 | 0.01 | 0.00 | 60 | 1013.9 |
| 20260506180036 | 62 | 153 | 1.0 | 6.0 | 0.00 | 0.01 | 0.00 | 57 | 1013.6 |
| 20260506174533 | 62 | 136 | 2.0 | 5.0 | 0.00 | 0.01 | 0.00 | 58 | 1013.6 |
| 20260506173036 | 62 | 221 | 0.0 | 9.0 | 0.00 | 0.01 | 0.00 | 57 | 1013.5 |
| 20260506171532 | 62 | 121 | 0.0 | 5.0 | 0.00 | 0.01 | 0.00 | 59 | 1013.3 |
| 20260506170031 | 63 | 101 | 2.0 | 11.0 | 0.00 | 0.01 | 0.00 | 59 | 1013.2 |
| 20260506164531 | 63 | 146 | 3.0 | 10.0 | 0.00 | 0.01 | 0.00 | 59 | 1013.1 |
| 20260506163032 | 63 | 178 | 5.0 | 11.0 | 0.00 | 0.01 | 0.00 | 59 | 1013.1 |
| 20260506161534 | 64 | 107 | 1.0 | 15.0 | 0.00 | 0.01 | 0.00 | 57 | 1013.2 |
| 20260506160030 | 64 | 162 | 4.0 | 11.0 | 0.00 | 0.01 | 0.00 | 55 | 1013.1 |
| 20260506154529 | 64 | 90 | 1.0 | 14.0 | 0.00 | 0.01 | 0.00 | 55 | 1013.1 |
| 20260506153028 | 65 | 125 | 2.0 | 13.0 | 0.00 | 0.01 | 0.00 | 54 | 1013.2 |
| 20260506151528 | 65 | 130 | 1.0 | 11.0 | 0.00 | 0.01 | 0.00 | 55 | 1013.2 |
| 20260506150027 | 65 | 96 | 1.0 | 14.0 | 0.00 | 0.01 | 0.00 | 53 | 1013.3 |
| 20260506144526 | 66 | 152 | 2.0 | 14.0 | 0.00 | 0.01 | 0.00 | 53 | 1013.4 |
| 20260506143029 | 66 | 150 | 2.0 | 14.0 | 0.00 | 0.01 | 0.00 | 52 | 1013.4 |
| 20260506141532 | 67 | 102 | 1.0 | 12.0 | 0.00 | 0.01 | 0.00 | 53 | 1013.4 |
| 20260506140023 | 66 | 120 | 3.0 | 12.0 | 0.00 | 0.01 | 0.00 | 50 | 1013.6 |
| 20260506134523 | 66 | 138 | 3.0 | 15.0 | 0.00 | 0.01 | 0.00 | 48 | 1013.7 |
| 20260506133025 | 67 | 177 | 3.0 | 12.0 | 0.00 | 0.01 | 0.00 | 48 | 1013.8 |
| 20260506131525 | 66 | 163 | 2.0 | 14.0 | 0.00 | 0.01 | 0.00 | 49 | 1013.9 |
| 20260506130023 | 66 | 110 | 2.0 | 11.0 | 0.00 | 0.01 | 0.00 | 50 | 1014.0 |
| 20260506124521 | 66 | 115 | 3.0 | 11.0 | 0.00 | 0.01 | 0.00 | 50 | 1014.1 |
| 20260506123020 | 67 | 98 | 0.0 | 12.0 | 0.00 | 0.01 | 0.00 | 49 | 1014.2 |
| 20260506121525 | 67 | 157 | 1.0 | 11.0 | 0.00 | 0.01 | 0.00 | 47 | 1014.3 |
| 20260506120026 | 67 | 76 | 3.0 | 13.0 | 0.00 | 0.01 | 0.00 | 46 | 1014.2 |
| 20260506114518 | 67 | 85 | 0.0 | 11.0 | 0.00 | 0.01 | 0.00 | 48 | 1014.1 |
| 20260506113017 | 67 | 128 | 1.0 | 8.0 | 0.00 | 0.01 | 0.00 | 50 | 1014.3 |
| 20260506111512 | 66 | 110 | 0.0 | 3.0 | 0.00 | 0.01 | 0.00 | 52 | 1014.3 |
| 20260506110014 | 65 | 340 | 3.0 | 8.0 | 0.00 | 0.01 | 0.00 | 50 | 1014.4 |
| 20260506104510 | 65 | 88 | 1.0 | 5.0 | 0.00 | 0.01 | 0.00 | 52 | 1014.5 |
| 20260506103010 | 65 | 111 | 1.0 | 5.0 | 0.00 | 0.01 | 0.00 | 52 | 1014.6 |
| 20260506101506 | 64 | 127 | 1.0 | 6.0 | 0.00 | 0.01 | 0.00 | 52 | 1014.6 |
| 20260506100005 | 64 | 107 | 0.0 | 7.0 | 0.00 | 0.01 | 0.00 | 54 | 1014.7 |
| 20260506094501 | 62 | 5 | 0.0 | 11.0 | 0.00 | 0.01 | 0.00 | 57 | 1014.9 |
| 20260506093100 | 61 | 62 | 0.0 | 9.0 | 0.00 | 0.01 | 0.00 | 57 | 1015.0 |
| 20260506091559 | 61 | 319 | 0.0 | 6.0 | 0.00 | 0.01 | 0.00 | 56 | 1014.8 |
| 20260506090057 | 61 | 55 | 0.0 | 4.0 | 0.00 | 0.01 | 0.00 | 56 | 1014.8 |
| 20260506084557 | 60 | 123 | 0.0 | 9.0 | 0.00 | 0.02 | 0.00 | 59 | 1015.0 |
| 20260506083058 | 61 | 5 | 3.0 | 6.0 | 0.00 | 0.02 | 0.00 | 59 | 1014.8 |
| 20260506081550 | 60 | 163 | 0.0 | 3.0 | 0.00 | 0.02 | 0.00 | 60 | 1014.8 |
| 20260506073046 | 57 | 155 | 1.0 | 10.0 | 0.00 | 0.02 | 0.00 | 67 | 1014.4 |
| 20260506071538 | 56 | 317 | 0.0 | 14.0 | 0.00 | 0.02 | 0.00 | 69 | 1014.4 |
| 20260506061530 | 55 | 312 | 8.0 | 18.0 | 0.00 | 0.02 | 0.00 | 70 | 1013.6 |
| 20260506044532 | 53 | 74 | 0.0 | 9.0 | 0.00 | 0.02 | 0.00 | 71 | 1013.3 |
| 20260506043022 | 54 | 279 | 2.0 | 8.0 | 0.00 | 0.02 | 0.00 | 71 | 1013.1 |
| 20260506041517 | 54 | 263 | 0.0 | 0.0 | 0.00 | 0.02 | 0.00 | 70 | 1013.3 |
| 20260506040015 | 54 | 263 | 0.0 | 0.0 | 0.00 | 0.02 | 0.00 | 69 | 1013.3 |
| 20260506034514 | 54 | 277 | 0.0 | 0.0 | 0.00 | 0.02 | 0.00 | 70 | 1013.2 |
| 20260506033013 | 54 | 275 | 1.0 | 9.0 | 0.00 | 0.02 | 0.00 | 74 | 1013.2 |
| 20260506031512 | 54 | 304 | 3.0 | 9.0 | 0.00 | 0.02 | 0.00 | 74 | 1013.1 |
| 20260506030013 | 54 | 298 | 3.0 | 7.0 | 0.00 | 0.02 | 0.00 | 74 | 1013.2 |
| 20260506024516 | 54 | 307 | 0.0 | 5.0 | 0.00 | 0.02 | 0.00 | 74 | 1013.2 |
| 20260506023016 | 54 | 257 | 0.0 | 9.0 | 0.00 | 0.02 | 0.00 | 75 | 1013.3 |
| 20260506021508 | 53 | 292 | 0.0 | 0.0 | 0.00 | 0.02 | 0.00 | 77 | 1013.3 |
| 20260506020007 | 53 | 65 | 0.0 | 0.0 | 0.00 | 0.02 | 0.00 | 81 | 1013.1 |
| 20260506014506 | 54 | 65 | 0.0 | 1.0 | 0.00 | 0.02 | 0.00 | 79 | 1013.0 |
| 20260506013006 | 54 | 355 | 0.0 | 6.0 | 0.00 | 0.02 | 0.00 | 78 | 1012.9 |
| 20260506011514 | 53 | 335 | 0.0 | 0.0 | 0.00 | 0.02 | 0.00 | 81 | 1012.9 |
| 20260506010003 | 54 | 335 | 0.0 | 1.0 | 0.00 | 0.02 | 0.00 | 81 | 1013.0 |
| 20260506004508 | 54 | 341 | 0.0 | 6.0 | 0.00 | 0.02 | 0.00 | 83 | 1013.1 |
| 20260506003100 | 54 | 344 | 0.0 | 1.0 | 0.00 | 0.02 | 0.00 | 82 | 1013.2 |
| 20260506001600 | 55 | 19 | 0.0 | 1.0 | 0.00 | 0.02 | 0.00 | 81 | 1013.3 |
| 20260506000059 | 56 | 342 | 0.0 | 1.0 | 0.00 | 0.02 | 0.00 | 78 | 1013.3 |
| 20260505234553 | 56 | 254 | 0.0 | 4.0 | 0.00 | 0.02 | 0.00 | 77 | 1013.3 |
| 20260505233050 | 57 | 271 | 0.0 | 6.0 | 0.00 | 0.02 | 0.00 | 77 | 1013.3 |
| 20260505231548 | 58 | 351 | 0.0 | 1.0 | 0.00 | 0.02 | 0.00 | 77 | 1012.9 |
| 20260505230047 | 58 | 257 | 0.0 | 1.0 | 0.00 | 0.02 | 0.00 | 76 | 1012.9 |
| 20260505224546 | 58 | 182 | 0.0 | 7.0 | 0.00 | 0.02 | 0.00 | 76 | 1013.1 |
| 20260505223044 | 58 | 301 | 0.0 | 1.0 | 0.00 | 0.02 | 0.00 | 75 | 1013.6 |
| 20260505221551 | 58 | 295 | 0.0 | 8.0 | 0.00 | 0.02 | 0.00 | 73 | 1013.7 |
| 20260505220053 | 58 | 206 | 0.0 | 8.0 | 0.00 | 0.02 | 0.00 | 73 | 1013.8 |
| 20260505214546 | 58 | 308 | 0.0 | 12.0 | 0.00 | 0.02 | 0.02 | 71 | 1013.7 |
| 20260505213040 | 58 | 316 | 7.0 | 12.0 | 0.00 | 0.02 | 0.02 | 70 | 1013.8 |
| 20260505211540 | 59 | 274 | 0.0 | 6.0 | 0.00 | 0.02 | 0.02 | 68 | 1013.6 |
| 20260505210045 | 59 | 281 | 1.0 | 10.0 | 0.00 | 0.02 | 0.02 | 67 | 1013.5 |
| 20260505204540 | 58 | 271 | 0.0 | 1.0 | 0.00 | 0.03 | 0.02 | 70 | 1013.2 |
| 20260505203036 | 57 | 268 | 0.0 | 0.0 | 0.00 | 0.03 | 0.02 | 71 | 1013.2 |
| 20260505201538 | 56 | 291 | 0.0 | 5.0 | 0.00 | 0.03 | 0.02 | 73 | 1013.3 |
| 20260505200036 | 56 | 310 | 8.0 | 12.0 | 0.00 | 0.03 | 0.02 | 73 | 1013.2 |
| 20260505194535 | 56 | 276 | 6.0 | 13.0 | 0.00 | 0.03 | 0.02 | 78 | 1012.8 |
| 20260505193041 | 56 | 313 | 6.0 | 15.0 | 0.00 | 0.03 | 0.02 | 79 | 1012.5 |
| 20260505191533 | 57 | 294 | 9.0 | 13.0 | 0.01 | 0.03 | 0.02 | 73 | 1012.4 |
| 20260505190033 | 58 | 260 | 0.0 | 1.0 | 0.01 | 0.03 | 0.02 | 66 | 1012.3 |